This is the latest recevied weather packets stored in our database for station/object WA7CUG. If no packets are shown the sender has not sent any weather packets the latest 10 day(s).
| Time | Temp. | Humidity | Pressure | Rain* | Wind** | Luminosity | Snow |
|---|---|---|---|---|---|---|---|
| 1778031284 | 30.56° C | 37% | 1008.8 hPa | 0 mm | - | 156 W/m² | - |
| 1778030980 | 29.44° C | 28% | 1009 hPa | 0 mm | - | 167 W/m² | - |
| 1778030676 | 28.89° C | 30% | 1008.7 hPa | 0 mm | - | 180 W/m² | - |
| 1778030373 | 29.44° C | 30% | 1008.9 hPa | 0 mm | - | 194 W/m² | - |
| 1778030072 | 28.89° C | 29% | 1008.8 hPa | 0 mm | - | 205 W/m² | - |
| 1778029767 | 28.89° C | 31% | 1009 hPa | 0 mm | - | 218 W/m² | - |
| 1778029467 | 28.89° C | 28% | 1009.2 hPa | 0 mm | - | 232 W/m² | - |
| 1778029162 | 29.44° C | 27% | 1009.1 hPa | 0 mm | - | 246 W/m² | - |
| 1778028860 | 28.89° C | 29% | 1009.2 hPa | 0 mm | - | 258 W/m² | - |
| 1778028555 | 28.89° C | 27% | 1009.1 hPa | 0 mm | - | 272 W/m² | - |
| 1778028254 | 28.89° C | 29% | 1009.2 hPa | 0 mm | - | 286 W/m² | - |
| 1778027949 | 29.44° C | 29% | 1009.3 hPa | 0 mm | - | 299 W/m² | - |
| 1778027645 | 28.89° C | 28% | 1009.1 hPa | 0 mm | - | 313 W/m² | - |
| 1778027343 | 28.89° C | 28% | 1009.2 hPa | 0 mm | - | 326 W/m² | - |
| 1778027038 | 28.89° C | 26% | 1009.1 hPa | 0 mm | - | 340 W/m² | - |
| 1778026734 | 28.89° C | 29% | 1009.5 hPa | 0 mm | - | 351 W/m² | - |
| 1778026431 | 29.44° C | 26% | 1009.2 hPa | 0 mm | - | 364 W/m² | - |
| 1778026128 | 29.44° C | 29% | 1009.5 hPa | 0 mm | - | 377 W/m² | - |
| 1778025826 | 29.44° C | 29% | 1009.4 hPa | 0 mm | - | 391 W/m² | - |
| 1778025522 | 29.44° C | 30% | 1009.6 hPa | 0 mm | - | 404 W/m² | - |
| 1778025220 | 28.89° C | 26% | 1009.6 hPa | 0 mm | - | 417 W/m² | - |
| 1778024917 | 29.44° C | 27% | 1009.6 hPa | 0 mm | - | 430 W/m² | - |
| 1778024615 | 28.89° C | 28% | 1009.8 hPa | 0 mm | - | 443 W/m² | - |
| 1778024311 | 28.89° C | 28% | 1009.8 hPa | 0 mm | - | 452 W/m² | - |
| 1778024009 | 29.44° C | 29% | 1009.9 hPa | 0 mm | - | 465 W/m² | - |
* Rain latest hour (hover to see other rain measurements)
** Current wind speed in m/s (hover to see current wind gust speed)